Regional Weather Roundup
Issued by NWS

Home | Current Version | Previous Version | Text Only | Print | Product List | Glossary Off
Versions: 1 2 3 4 5 6 7 8 9 10 11 12 13 14 15 16 17 18 19 20 21 22 23 24 25 26 27

000
ASUS45 KTFX 241710
RWRMT
MONTANA REGIONAL WEATHER ROUNDUP
NATIONAL WEATHER SERVICE GREAT FALLS MT
1100 AM MDT MON APR 24 2017

NOTE: "FAIR" INDICATES FEW OR NO CLOUDS BELOW 12000 FEET WITH NO
SIGNIFICANT WEATHER AND/OR OBSTRUCTIONS TO VISIBILITY.

MTZ001>007-043-241800-
WEST OF THE DIVIDE

CITY           SKY/WX    TMP DP  RH WIND       PRES   REMARKS
KALISPELL      CLOUDY    47  40  76 SE10      29.66F
MISSOULA       CLOUDY    48  37  65 CALM      29.67F
BUTTE          MOSUNNY   44  29  55 CALM      29.65F
MULLAN PASS    LGT SNOW  31  30  96 VRB3      29.64S FOG
ANACONDA         N/A     45  34  65 CALM      29.65F
DEER LODGE       N/A     45  36  70 CALM      29.68F
EUREKA           N/A     46  37  71 SE8       29.66S
HAMILTON         N/A     48  34  57 CALM      29.65F
LIBBY            N/A     46  39  76 NW3       29.65F
$$

MTZ008-052>055-241800-
SOUTHWEST MONTANA

CITY           SKY/WX    TMP DP  RH WIND       PRES   REMARKS
BOZEMAN        MOSUNNY   45  36  70 CALM      29.67F
DILLON         CLOUDY    43  33  68 CALM      29.64F
W YELLOWSTONE  MIX PCPN  32  32 100 NE3       29.68F VSB 1/2
ENNIS          SUNNY     45  32  61 CALM      29.70S
THREE FORKS      N/A     47  47 100 S2        29.70F
$$

MTZ009-010-012-014-046-048-049-054-241800-
EAST SLOPES AND CENTRAL MONTANA

CITY           SKY/WX    TMP DP  RH WIND       PRES   REMARKS
CUT BANK       CLOUDY    47  32  56 N8        29.61F
GREAT FALLS    MOSUNNY   53  32  44 S8        29.62F
MALMSTROM AFB  PTSUNNY   53  33  48 SW9       29.62F
HELENA         MOSUNNY   52  31  44 W10       29.63F
AUGUSTA          N/A     49  25  38 W12       29.61S
BOWMANS CRNR     N/A     48  29  47 SW9       29.60F
CHOTEAU          N/A     54  28  37 W10       29.62F
FAIRFIELD        N/A     51  27  39 NW3       29.60F
POWER            N/A     50  32  51 SW8       29.61F
RAYNESFORD     PTSUNNY   49  35  57 NW8       29.62F
ULM            PTSUNNY   51  32  48 W6        29.62F
$$

MTZ011-013-016-021-045-047-050-051-241800-
NORTH CENTRAL MONTANA

CITY           SKY/WX    TMP DP  RH WIND       PRES   REMARKS
HAVRE          CLOUDY    42  40  92 CALM      29.65S
LEWISTOWN      CLOUDY    49  35  58 N5        29.63F
N BAR RANCH    LGT RAIN  41  36  81 CALM      29.66R VSB 1
CHINOOK          N/A     43  37  81 E8        29.66S
DENTON           N/A     49  41  74 CALM      29.60F
FORT BENTON      N/A    N/A N/A N/A MISG      29.64F
GEYSER           N/A     49  31  51 W9        29.62F
GRASS RANGE      N/A     50  37  62 CALM      29.59F
JUDITH GAP     PTSUNNY   45  33  63 S5        29.63F
STANFORD       PTSUNNY   47  35  63 W7        29.62F
WINIFRED       PTSUNNY   49  37  64 N6        29.63S
$$

MTZ017>020-022>027-061-062-241800-
NORTHEAST MONTANA

CITY           SKY/WX    TMP DP  RH WIND       PRES   REMARKS
GLASGOW        CLOUDY    37  32  82 NE3       29.70R
JORDAN           N/A     43  38  82 NE5       29.66S
SIDNEY         CLOUDY    36  32  85 NE8       29.70F WCI  30
WOLF POINT     CLOUDY    37  32  82 E6        29.71S
MALTA          CLOUDY    39  36  87 E7        29.69R
PLENTYWOOD       N/A     28  27  93 E13G18    29.73S WCI  18
POPLAR           N/A     34  30  86 NE6       29.72S WCI  29
$$

MTZ028>42-056>058-241800-
SOUTHCENTRAL AND SOUTHEAST MONTANA

CITY           SKY/WX    TMP DP  RH WIND       PRES   REMARKS
BAKER          CLOUDY    43  39  86 NW12      29.64S
BILLINGS       CLOUDY    51  38  60 N9        29.63F
LIVINGSTON     CLOUDY    44  39  82 NW3       29.66F
MILES CITY     CLOUDY    47  41  80 N6        29.65S
BIG TIMBER     CLOUDY    43  39  87 VRB7      29.68S
LAUREL           N/A     51  38  61 W3        29.66R
ROUNDUP          N/A     47  44  89 S6        29.59F
$$

REGIONAL REPORTS...DAKOTAS

CITY           SKY/WX    TMP DP  RH WIND       PRES   REMARKS
WILLISTON      CLOUDY    33  27  78 NE9       29.73S WCI  25
MINOT          FLURRIES  32  27  81 NE13      29.72S WCI  22
DICKINSON      CLOUDY    32  30  92 N7        29.63S WCI  26
BEACH          CLOUDY    37  37 100 NW3       29.67F
TIOGA          CLOUDY    28  28 100 NE13      29.72S WCI  18
WATFORD CITY   CLOUDY    32  30  93 NE6       29.70R WCI  26
BISMARCK       CLOUDY    36  33  89 N9        29.65F WCI  29
GRAND FORKS    RAIN      36  35  96 NE13      29.64F FOG     WCI  27
FARGO          LGT RAIN  50  39  66 E5        29.54F
BUFFALO SD       N/A     47  41  80 NW14      29.56S
RAPID CITY     PTSUNNY   54  43  66 N17       29.62S
$$

REGIONAL REPORTS...WYOMING/IDAHO/WASHINGTON

CITY           SKY/WX    TMP DP  RH WIND       PRES   REMARKS
GILLETTE       MOSUNNY   54  39  57 N6        29.64F
SHERIDAN       MOSUNNY   56  35  45 VRB6      29.62F
BUFFALO WY     MOSUNNY   52  34  50 E7        29.64F
CODY           SUNNY     51  33  50 SE3       29.63F
YELLOWSTONE LA   N/A     33  32  96 VRB3      29.69F
IDAHO FALLS    LGT RAIN  42  40  92 S13       29.70F
SALMON         PTSUNNY   46  36  66 CALM      29.63F
BOISE          RAIN      44  41  89 NW13      29.74R FOG
SPOKANE        CLOUDY    46  37  71 S10       29.69F
$$

REGIONAL REPORTS...ALBERTA

CITY           SKY/WX    TMP DP  RH WIND       PRES   REMARKS
EDMONTON       MIX PCPN  34  32  93 E3        29.73R
CALGARY        LGT SNOW  32  30  93 NE6       29.67S VSB 3/4 WCI  26
LETHBRIDGE     CLOUDY    39  37  93 N8        29.65S
MEDICINE HAT   LGT RAIN  41  39  93 N7        29.65S FOG
WATERTON GATE    N/A     46  30  53 NE5         N/A
MILK RIVER       N/A     48  37  66 NW8         N/A
ONEFOUR          N/A     43  43 100 SE2         N/A
$$

REGIONAL REPORTS...SASKATCHEWAN

CITY           SKY/WX    TMP DP  RH WIND       PRES   REMARKS
SWIFT CURRENT  CLOUDY    32  30  93 SE13G20   29.69S WCI  22
REGINA         CLOUDY    30  21  69 E22       29.80F WCI  17
SASKATOON      CLOUDY    32  25  74 SE21G26   29.85S WCI  20
CYPRESS HILLS    N/A     37  36  93 S3          N/A
VAL MARIE        N/A     37  34  87 E6          N/A
ROCKGLEN         N/A     28  28 100 E3          N/A
ASSINIBOIA       N/A     36  32  87 SE6         N/A  WCI  31
$$




USA.gov is the U.S. government's official web portal to all federal, state and local government web resources and services.